Grand Marais, MN

6:32 AM CDT on April 25, 2017 (GMT -0500)
Grand Marais

Weather History for KGNA - February, 2013

Change the Weather History Date:

Sunday, February 10, 2013

  Actual Average (KCKC) Record (KCKC)
Temperature  
Mean Temperature 30 °F -  
Max Temperature 33 °F 20 °F 37 °F (2009)
Min Temperature 28 °F 4 °F -23 °F (2008)
Degree Days  
Heating Degree Days 34    
Moisture  
Dew Point 27 °F    
Average Humidity 83    
Maximum Humidity 92    
Minimum Humidity 76    
Precipitation  
Precipitation 0.82 in - - ()
Sea Level Pressure  
Sea Level Pressure 29.78 in    
Wind  
Wind Speed 12 mph (ENE)    
Max Wind Speed 28 mph    
Max Gust Speed 38 mph    
Averages and records for this station are not official NWS values.
T = Trace of Precipitation, MM = Missing Value Source: NWS Daily Summary

Daily Weather History Graph

Daily Weather History Graph

Search for Another Location

Airport or City:

Trip Planner

Search our weather history database for the weather conditions in past years. The results will help you decide how hot, cold, wet, or windy it might be!

Date:

Astronomy

Feb. 10, 2013 Rise Set
Actual Time 7:14 AM CST 5:16 PM CST
Civil Twilight 6:42 AM CST 5:49 PM CST
Nautical Twilight 6:06 AM CST 6:25 PM CST
Astronomical Twilight 5:30 AM CST 7:01 PM CST
Moon 6:59 AM CST (2/10) 6:15 PM CST (2/10)
Length of Visible Light 11h 06m
Length of Day
10h 02m
New Moon, 0% of the Moon is Illuminated
Feb 10
New Moon
Feb 17
First Quarter
Feb 25
Full
Mar 4
Last Quarter
Mar 11
New

Hourly Weather History & Observations

Time (CST) Temp. Windchill Dew Point Humidity Pressure Visibility Wind Dir Wind Speed Gust Speed Precip Events Conditions
12:56 AM 30.0 °F 21.7 °F 27.0 °F 88% 30.05 in - SW 9.2 mph - N/A   Unknown
1:56 AM 30.0 °F 25.2 °F 27.0 °F 88% 30.04 in - SSW 4.6 mph - N/A   Unknown
2:56 AM 28.9 °F - 26.1 °F 89% 30.03 in - Calm Calm - N/A   Unknown
3:56 AM 30.0 °F - 27.0 °F 88% 30.02 in - Calm Calm - N/A   Unknown
4:56 AM 30.0 °F - 27.0 °F 88% 30.01 in - Calm Calm - N/A   Unknown
5:56 AM 30.9 °F 23.5 °F 25.0 °F 79% 29.99 in - East 8.1 mph - N/A   Unknown
6:56 AM 30.9 °F 21.2 °F 25.0 °F 79% 29.97 in - East 12.7 mph - N/A   Unknown
7:56 AM 30.9 °F 21.7 °F 26.1 °F 82% 29.96 in - East 11.5 mph - N/A   Unknown
8:56 AM 30.0 °F 17.9 °F 26.1 °F 85% 29.95 in - East 18.4 mph 21.9 mph N/A   Unknown
9:56 AM 30.9 °F 19.1 °F 25.0 °F 79% 29.91 in - ENE 18.4 mph 26.5 mph N/A   Unknown
10:56 AM 32.0 °F 20.5 °F 26.1 °F 79% 29.93 in - East 18.4 mph 25.3 mph N/A   Unknown
11:56 AM 30.9 °F 17.2 °F 24.1 °F 76% 29.88 in - East 25.3 mph 35.7 mph N/A   Unknown
12:56 PM 30.9 °F 16.7 °F 25.0 °F 79% 29.81 in - ENE 27.6 mph 38.0 mph N/A   Unknown
1:56 PM 30.9 °F 19.1 °F 24.1 °F 76% 29.76 in - ENE 18.4 mph 31.1 mph N/A   Unknown
2:56 PM 30.9 °F 20.2 °F 25.0 °F 79% 29.69 in - NE 15.0 mph 25.3 mph N/A   Unknown
3:56 PM 32.0 °F 20.5 °F 26.1 °F 79% 29.64 in - NE 18.4 mph 29.9 mph N/A   Unknown
4:56 PM 32.0 °F 20.5 °F 28.0 °F 85% 29.60 in - NE 18.4 mph 31.1 mph 0.06 in   Unknown
5:56 PM 32.0 °F 19.8 °F 30.0 °F 92% 29.59 in - ENE 20.7 mph 33.4 mph 0.25 in   Unknown
6:56 PM 32.0 °F 18.4 °F 30.0 °F 92% 29.57 in - NE 26.5 mph 34.5 mph 0.30 in   Unknown
7:56 PM 32.0 °F 18.9 °F 28.9 °F 88% 29.53 in - ENE 24.2 mph 33.4 mph 0.17 in   Unknown
8:56 PM 33.1 °F 22.2 °F 28.9 °F 85% 29.50 in - ENE 17.3 mph 33.4 mph 0.04 in   Unknown
9:56 PM 33.1 °F 21.5 °F 28.0 °F 82% 29.46 in - NE 19.6 mph 31.1 mph N/A   Unknown
10:56 PM 33.1 °F 23.9 °F 27.0 °F 78% 29.44 in - NE 12.7 mph 23.0 mph N/A   Unknown
11:56 PM 33.1 °F 23.4 °F 27.0 °F 78% 29.42 in - NE 13.8 mph 20.7 mph N/A   Unknown